Weather reports worldwide

Advertisment
Coleshill, United Kingdom (3535): temperature & dewpoint: 25.10.2020 04:00:00 - 31.10.2020 04:00:00 (GMT)Coleshill, United Kingdom (3535): temperature -20cm & temperature -100cm: 25.10.2020 04:00:00 - 31.10.2020 04:00:00 (GMT)Coleshill, United Kingdom (3535): wind speed & gusts: 25.10.2020 04:00:00 - 31.10.2020 04:00:00 (GMT)Coleshill, United Kingdom (3535): wind direction: 25.10.2020 04:00:00 - 31.10.2020 04:00:00 (GMT)Coleshill, United Kingdom (3535): reduced air pressure: 25.10.2020 04:00:00 - 31.10.2020 04:00:00 (GMT)Coleshill, United Kingdom (3535): visibility: 25.10.2020 04:00:00 - 31.10.2020 04:00:00 (GMT)Coleshill, United Kingdom (3535): precipitation: 25.10.2020 04:00:00 - 31.10.2020 04:00:00 (GMT)
Date & Time tt [°C] td [°C] tt -20cm [°C] tt -100cm [°C] ff [km/h] ff [kn] fx [km/h] fx [kn] dd ppp [hPa] vv [km] rr [mm]
31.10.2020 04:00:00 13,3 12,9 - - 21 11 - - S 1011,6 6 0,0
31.10.2020 03:00:00 13,6 13,0 - - 18 10 - - S 1012,4 8 0,2
31.10.2020 02:00:00 13,6 13,4 - - 15 8 - - S 1013,4 3,1 0,2
31.10.2020 01:00:00 13,6 13,4 - - 16 9 - - S 1014,2 3,5 0,0
31.10.2020 00:00:00 13,7 13,4 - - 13 7 - - S 1015,1 7 0,0
30.10.2020 23:00:00 12,8 12,7 - - 8 4 - - SSE 1015,8 3,6 0,2
30.10.2020 22:00:00 12,1 11,5 - - 8 4 - - SE 1016,3 2,3 0,0
30.10.2020 21:00:00 11,4 10,4 - - 4 2 - - E 1017,0 11 0,0
30.10.2020 20:00:00 11,3 10,1 - - 5 3 - - NNE 1017,4 19 0,0
30.10.2020 19:00:00 11,3 9,8 - - 5 3 - - N 1017,3 40 0,0
30.10.2020 18:00:00 12,3 10,7 - - 8 4 - - NNE 1016,7 12 0,0
30.10.2020 17:00:00 14,8 11,1 - - 5 3 - - SW 1015,8 45 0,0
30.10.2020 16:00:00 15,5 12,6 - - 11 6 - - SSW 1015,0 50 0,0
30.10.2020 15:00:00 15,9 13,6 - - 11 6 - - SSW 1014,6 50 0,0
30.10.2020 14:00:00 15,8 13,4 - - 21 11 - - SSW 1013,8 50 0,0
30.10.2020 13:00:00 15,6 13,4 - - 18 10 - - SSW 1013,4 50 0,0
30.10.2020 12:00:00 15,3 13,3 - - 18 10 - - SSW 1013,1 35 0,0
30.10.2020 11:00:00 15,0 13,0 - - 16 9 - - SSW 1012,7 50 0,0
30.10.2020 10:00:00 15,0 12,9 - - 22 12 - - SSW 1011,9 50 0,0
30.10.2020 09:00:00 14,6 12,7 10,7 11,7 21 11 - - SSW 1011,1 45 0,0
30.10.2020 08:00:00 14,3 12,5 - - 26 14 - - SSW 1010,2 50 0,0
30.10.2020 07:00:00 14,1 12,5 - - 22 12 - - SSW 1009,7 50 0,0
30.10.2020 06:00:00 14,0 12,4 - - 21 11 - - SSW 1009,3 45 0,0
30.10.2020 05:00:00 14,1 12,3 - - 22 12 - - SSW 1009,4 40 0,0
30.10.2020 04:00:00 13,9 12,2 - - 16 9 - - SSW 1009,1 45 0,0
30.10.2020 03:00:00 13,9 12,1 - - 16 9 - - SSW 1008,8 45 0,0
30.10.2020 02:00:00 13,9 12,0 - - 22 12 - - SSW 1008,5 30 0,0
30.10.2020 01:00:00 13,9 11,7 - - 18 10 - - SSW 1008,4 19 0,0
30.10.2020 00:00:00 13,9 11,6 - - 21 11 - - SSW 1008,1 20 0,0
29.10.2020 23:00:00 13,9 11,6 - - 21 11 - - S 1008,0 17 0,0
29.10.2020 22:00:00 14,2 11,5 - - 24 13 - - SSW 1008,3 17 0,0
29.10.2020 21:00:00 14,0 11,6 - - 21 11 - - SSW 1008,2 28 0,0
29.10.2020 20:00:00 14,1 11,7 - - 22 12 - - SSW 1007,8 29 0,0
29.10.2020 19:00:00 14,2 11,7 - - 21 11 - - SSW 1007,7 35 0,0
29.10.2020 18:00:00 14,0 11,5 - - 18 10 - - SSW 1007,5 35 0,0
29.10.2020 17:00:00 14,0 11,6 - - 15 8 - - SW 1007,1 40 0,0
29.10.2020 16:00:00 14,1 11,4 - - 18 10 - - SSW 1006,9 27 0,0
29.10.2020 15:00:00 13,8 11,6 - - 21 11 - - SSW 1006,9 20 0,0
29.10.2020 14:00:00 13,4 11,7 - - 22 12 50 27 SSW 1007,3 30 0,0
29.10.2020 13:00:00 13,0 11,6 - - 22 12 46 25 SSW 1007,4 40 0,0
29.10.2020 12:00:00 12,5 11,1 - - 22 12 - - SSW 1008,0 27 0,0
29.10.2020 11:00:00 10,8 10,3 - - 18 10 - - S 1008,5 10 0,2
29.10.2020 10:00:00 9,6 9,2 - - 16 9 - - S 1009,1 8 0,2
29.10.2020 09:00:00 9,0 8,3 9,7 11,7 15 8 - - S 1009,6 11 0,0
29.10.2020 08:00:00 8,6 7,2 - - 13 7 - - S 1009,9 11 0,0
29.10.2020 07:00:00 8,2 5,8 - - 11 6 - - S 1009,9 15 0,0
29.10.2020 06:00:00 8,4 5,5 - - 13 7 - - S 1009,6 18 0,0
29.10.2020 05:00:00 7,9 5,1 - - 11 6 - - SSW 1009,0 15 0,0
29.10.2020 04:00:00 7,5 4,8 - - 11 6 - - SW 1008,4 16 0,0
29.10.2020 03:00:00 7,2 4,5 - - 9 5 - - SSW 1008,0 15 0,0
29.10.2020 02:00:00 6,9 4,4 - - 11 6 - - SSW 1007,4 18 0,0
29.10.2020 01:00:00 7,1 4,1 - - 9 5 - - SW 1006,5 22 0,0
29.10.2020 00:00:00 6,2 4,0 - - 13 7 - - SSW 1005,8 17 0,0
28.10.2020 23:00:00 6,8 4,4 - - 11 6 - - SW 1005,0 19 0,0
28.10.2020 22:00:00 6,6 4,2 - - 11 6 - - SSW 1004,1 22 0,0
28.10.2020 21:00:00 6,8 4,0 - - 11 6 - - SW 1003,3 23 0,0
28.10.2020 20:00:00 7,4 4,1 - - 11 6 - - SW 1002,3 25 0,0
28.10.2020 19:00:00 8,0 4,6 - - 13 7 - - SW 1001,3 35 0,0
28.10.2020 18:00:00 8,3 5,5 - - 11 6 - - SW 1000,5 35 0,0
28.10.2020 17:00:00 8,8 5,8 - - 11 6 - - SSW 999,6 50 0,0
28.10.2020 16:00:00 9,3 4,9 - - 11 6 - - SW 999,2 45 0,0
28.10.2020 15:00:00 9,9 6,1 - - 15 8 - - SSW 998,9 40 0,0
28.10.2020 14:00:00 10,4 6,5 - - 15 8 - - SSW 998,8 40 0,0
28.10.2020 13:00:00 10,4 6,3 - - 24 13 - - SSW 998,9 40 0,0
28.10.2020 12:00:00 10,4 7,1 - - 24 13 - - S 999,0 21 0,0
28.10.2020 11:00:00 10,3 6,8 - - 21 11 - - SSW 999,1 30 0,0
28.10.2020 10:00:00 9,4 6,4 - - 21 11 - - SSW 999,1 22 0,0
28.10.2020 09:00:00 8,7 6,1 10,0 11,9 24 13 48 26 SSW 998,5 26 0,0
28.10.2020 08:00:00 7,6 6,0 - - 21 11 - - S 998,3 28 0,0
28.10.2020 07:00:00 7,4 5,9 - - 16 9 - - S 997,9 28 0,0
28.10.2020 06:00:00 7,1 5,7 - - 16 9 - - S 997,7 22 0,0
28.10.2020 05:00:00 7,1 5,6 - - 18 10 - - SSW 997,4 45 0,0
28.10.2020 04:00:00 7,0 5,6 - - 21 11 - - S 997,0 30 0,0
28.10.2020 03:00:00 7,6 5,6 - - 22 12 - - S 997,0 18 0,0
28.10.2020 02:00:00 7,4 5,7 - - 15 8 - - S 997,1 16 0,0
28.10.2020 01:00:00 6,9 5,3 - - 11 6 - - S 997,3 14 0,0
28.10.2020 00:00:00 7,1 5,3 - - 15 8 - - S 997,0 17 0,0
27.10.2020 23:00:00 6,0 4,1 - - 5 3 - - SSE 997,2 13 0,0
27.10.2020 22:00:00 7,1 5,0 - - 15 8 - - S 996,5 15 0,0
27.10.2020 21:00:00 7,4 4,7 - - 11 6 - - SSW 996,1 14 0,0
27.10.2020 20:00:00 8,4 5,5 - - 11 6 - - SSW 995,5 15 0,0
27.10.2020 19:00:00 8,8 5,2 - - 11 6 - - SW 994,9 15 0,0
27.10.2020 18:00:00 9,4 5,4 - - 9 5 - - SW 993,8 19 0,0
27.10.2020 17:00:00 10,4 6,6 - - 13 7 - - WSW 992,7 30 0,0
27.10.2020 16:00:00 11,7 8,0 - - 15 8 - - WSW 991,7 40 0,0
27.10.2020 15:00:00 12,3 10,2 - - 15 8 - - WSW 990,8 16 0,2
27.10.2020 14:00:00 12,0 11,8 - - 16 9 - - S 989,9 4,0 0,8
27.10.2020 13:00:00 11,2 10,9 - - 21 11 - - S 990,5 3,6 0,4
27.10.2020 12:00:00 10,3 9,9 - - 18 10 - - S 991,8 13 0,4
27.10.2020 11:00:00 9,3 8,9 - - 16 9 - - SSE 993,3 12 0,2
27.10.2020 10:00:00 8,7 8,3 - - 18 10 - - SSE 994,5 4,0 0,2
27.10.2020 09:00:00 7,8 7,2 10,2 12,0 18 10 - - SSE 995,5 11 0,0
27.10.2020 08:00:00 7,7 7,1 - - 16 9 - - S 996,6 17 0,0
27.10.2020 07:00:00 7,7 6,8 - - 15 8 - - S 997,1 17 0,0
27.10.2020 06:00:00 7,3 6,3 - - 15 8 - - S 997,6 24 0,0
27.10.2020 05:00:00 6,8 5,9 - - 13 7 - - S 998,1 24 0,0
27.10.2020 04:00:00 6,6 5,7 - - 13 7 - - S 998,5 25 0,0
27.10.2020 03:00:00 6,1 5,1 - - 11 6 - - SSW 999,0 20 0,0
27.10.2020 02:00:00 7,0 5,8 - - 11 6 - - SSW 999,3 27 0,0
27.10.2020 01:00:00 7,2 5,9 - - 9 5 - - SW 999,4 30 0,0
27.10.2020 00:00:00 7,1 5,8 - - 9 5 - - SW 999,7 29 0,0
26.10.2020 23:00:00 7,2 5,7 - - 9 5 - - SSW 999,6 21 0,0
26.10.2020 22:00:00 8,0 6,4 - - 8 4 - - SW 999,5 21 0,0
26.10.2020 21:00:00 7,8 6,0 - - 9 5 - - SW 999,3 20 0,0
26.10.2020 20:00:00 7,9 5,8 - - 9 5 - - SW 998,7 19 0,0
26.10.2020 19:00:00 8,3 5,8 - - 9 5 - - SW 998,3 16 0,0
26.10.2020 18:00:00 9,1 6,0 - - 8 4 - - SW 998,0 21 0,0
26.10.2020 17:00:00 10,5 5,9 - - 15 8 - - WSW 997,4 16 0,0
26.10.2020 16:00:00 11,3 5,7 - - 18 10 - - W 996,7 30 0,0
26.10.2020 15:00:00 12,0 6,0 - - 21 11 - - W 996,2 30 0,0
26.10.2020 14:00:00 11,6 7,9 - - 13 7 - - WNW 995,7 20 0,2
26.10.2020 13:00:00 11,8 7,3 - - 18 10 - - WSW 995,4 24 0,0
26.10.2020 12:00:00 11,5 8,2 - - 9 5 - - WSW 995,1 13 0,0
26.10.2020 11:00:00 11,0 9,6 - - 9 5 - - WSW 994,8 35 0,2
26.10.2020 10:00:00 9,3 8,1 - - 15 8 - - SSW 994,3 21 0,0
26.10.2020 09:00:00 7,9 7,1 10,5 12,2 18 10 - - SSW 993,8 22 0,0
26.10.2020 08:00:00 7,1 6,6 - - 15 8 - - S 993,5 20 0,2
26.10.2020 07:00:00 6,2 5,8 - - 13 7 - - S 993,0 16 0,0
26.10.2020 06:00:00 5,9 5,7 - - 15 8 - - S 993,0 17 0,0
26.10.2020 05:00:00 5,3 5,1 - - 13 7 - - S 992,9 16 0,0
26.10.2020 04:00:00 5,4 5,0 - - 9 5 - - S 993,1 19 0,0
26.10.2020 03:00:00 5,5 5,1 - - 11 6 - - S 993,3 24 0,2
26.10.2020 02:00:00 5,6 5,2 - - 11 6 - - S 993,3 23 0,0
26.10.2020 01:00:00 5,7 5,3 - - 11 6 - - S 993,6 30 0,0
26.10.2020 00:00:00 6,0 5,4 - - 13 7 - - S 994,0 35 0,0
25.10.2020 23:00:00 6,4 5,5 - - 13 7 - - S 993,9 40 0,0
25.10.2020 22:00:00 6,7 6,2 - - 13 7 - - S 994,3 35 0,0
25.10.2020 21:00:00 6,9 6,4 - - 13 7 - - S 994,1 45 0,0
25.10.2020 20:00:00 7,2 6,4 - - 9 5 - - S 994,4 45 0,0
25.10.2020 19:00:00 7,7 6,6 - - 13 7 - - S 994,1 50 0,2
25.10.2020 18:00:00 6,9 5,9 - - 8 4 - - S 994,1 50 0,0
25.10.2020 17:00:00 7,8 6,1 - - 13 7 - - S 993,6 50 0,0
25.10.2020 16:00:00 9,4 6,3 - - 16 9 - - SSW 993,2 40 0,0
25.10.2020 15:00:00 8,8 6,4 - - 13 7 - - SSW 993,4 24 0,6
25.10.2020 14:00:00 11,1 5,5 - - 15 8 - - SSW 993,3 50 0,0
25.10.2020 13:00:00 11,6 5,7 - - 16 9 - - SSW 993,2 35 0,0
25.10.2020 12:00:00 11,0 6,1 - - 21 11 - - SSW 993,8 35 0,0
25.10.2020 11:00:00 11,5 6,4 - - 18 10 - - SSW 994,0 40 0,0
25.10.2020 10:00:00 9,2 6,5 - - 16 9 - - S 993,9 35 0,0
25.10.2020 09:00:00 8,8 6,7 11,2 12,4 24 13 - - S 993,4 30 0,0
25.10.2020 08:00:00 8,0 6,3 - - 18 10 - - S 993,6 22 0,0
25.10.2020 07:00:00 6,8 5,4 - - 16 9 - - S 993,3 26 0,0
25.10.2020 06:00:00 6,8 5,5 - - 15 8 - - S 993,0 22 0,0
25.10.2020 05:00:00 7,2 6,0 - - 13 7 - - S 993,4 25 0,0
25.10.2020 04:00:00 7,0 6,1 - - 11 6 - - S 993,2 28 0,0

tt = temperature
td = dewpoint
tt -20cm = temperature -20cm
tt -100cm = temperature -100cm
ff = wind speed
fx = gusts
dd = wind direction
ppp = reduced air pressure
vv = visibility
rr = precipitation

Next stations